Regional Weather Roundup
Issued by NWS

Home | Current Version | Previous Version | Graphics & Text | Print | Product List | Glossary On
Versions: 1 2 3 4 5 6 7 8 9 10 11 12 13 14 15 16 17 18 19 20 21 22 23 24 25 26 27 28 29 30 31 32 33 34 35 36 37 38 39 40 41 42 43 44 45 46 47 48 49 50
000
ASUS45 KPSR 161510
RWRAZ

ARIZONA HOURLY REGIONAL WEATHER ROUNDUP
NATIONAL WEATHER SERVICE PHOENIX AZ
800 AM MST MON JAN 16 2017

NOTE: FAIR INDICATES FEW OR NO CLOUDS BELOW 12,000 FEET WITH NO
SIGNIFICANT WEATHER AND/OR OBSTRUCTIONS TO VISIBILITY.

AZZ001>003-036-161600-
NORTHWEST ARIZONA

CITY           SKY/WX    TMP DP  RH WIND       PRES   REMARKS
BULLHEAD CITY  PTCLDY    50  28  43 N15       30.09R
KINGMAN        PTCLDY    34  25  69 E10       30.06R WCI  26
$$

AZZ004>008-015-016-018-161600-
NORTH CENTRAL ARIZONA

CITY           SKY/WX    TMP DP  RH WIND       PRES   REMARKS
GRAND CANYON   CLEAR     25  24  96 NE5       30.01R WCI  19
WILLIAMS       CLOUDY    32  30  93 VRB5      30.01S WCI  27
PRESCOTT       CLOUDY    36  36 100 CALM      30.02R
FLAGSTAFF      PTCLDY    28  26  92 CALM      30.00R
PAYSON         CLOUDY    39  37  93 W3        30.04S
PAGE           CLEAR     35  23  61 CALM      30.02R
$$

AZZ009>014-017-161600-
NORTHEAST ARIZONA

CITY           SKY/WX    TMP DP  RH WIND       PRES   REMARKS
WINSLOW        CLOUDY    40  37  89 CALM      30.01R
SAINT JOHNS    CLOUDY    38  36  92 W3        29.99R
SHOW LOW       CLOUDY    34  32  93 S3        30.02R
$$

AZZ023-161600-
GREATER PHOENIX AREA

CITY           SKY/WX    TMP DP  RH WIND       PRES   REMARKS
PHOENIX        MOCLDY    53  48  83 CALM      30.01R
BUCKEYE        CLEAR     45  45 100 N7        30.03S
GLENDALE       MOCLDY    48  48 100 CALM      30.04R
LUKE AFB       PTCLDY    48 N/A N/A NE7       30.02R
DEER VALLEY    PTCLDY    50  48  93 CALM      30.02R
SCOTTSDALE     CLOUDY    52  48  86 CALM      30.03R
$$

AZZ027-028-161600-
SOUTHWEST MARICOPA COUNTY AND PINAL COUNTY

CITY           SKY/WX    TMP DP  RH WIND       PRES   REMARKS
CASA GRANDE    CLOUDY    47  46  97 NE3       30.04R
$$

AZZ503-504-507>509-161600-
SOUTHEAST ARIZONA

CITY           SKY/WX    TMP DP  RH WIND       PRES   REMARKS
TUCSON         CLOUDY    48  46  93 SE3       30.05R
DAVIS-MONTHAN  MOCLDY    47  47 100 CALM      30.04R
RYAN FIELD     CLEAR     46  45  93 CALM      30.06R
NOGALES        CLOUDY    40  38  93 CALM      30.03R
SIERRA VISTA   CLOUDY    39  37  93 W3        30.05R
DOUGLAS        MOCLDY    35  34  96 CALM      30.04R
SAFFORD        CLOUDY    45  43  93 E5        30.01S
$$

AZZ020-021-025-026-031-161600-
SOUTHWEST ARIZONA

CITY           SKY/WX    TMP DP  RH WIND       PRES   REMARKS
YUMA           CLOUDY    53  49  86 N5        30.03R
$$

CAZ031-033-041-043-047-048-061-161600-
SOUTHERN CALIFORNIA

CITY           SKY/WX    TMP DP  RH WIND       PRES   REMARKS
DOWNTOWN L.A.  CLOUDY    55  51  86 CALM      30.06R
L.A. AIRPORT   MOCLDY    54  50  86 N3        30.07R
SAN DIEGO      MOCLDY    54  50  86 CALM      30.07R
BURBANK        CLEAR     48  43  82 VRB3      30.06R
ONTARIO        MOCLDY    50  47  89 CALM      30.06R
RIVERSIDE      MOCLDY    44  32  62 NE5       30.06R
PALM SPRINGS   PTCLDY    48  44  86 CALM      30.06R
EL CENTRO NAS  CLEAR     45  43  93 NE5       30.06R
IMPERIAL       CLEAR     46  43  89 NE3       30.04R
BLYTHE         CLEAR     45  42  89 N5        30.05R
NEEDLES        MOCLDY    50  32  50 N10       30.09R
$$

NVZ020-UTZ003-161600-
SOUTHERN NEVADA-UTAH

CITY           SKY/WX    TMP DP  RH WIND       PRES   REMARKS
LAS VEGAS      PTCLDY    42  25  50 E14       30.10R
SALT LAKE CITY FLURRIES  24  18  77 N12       30.28R WCI  13
$$

NMZ009-TXZ055-161600-
NEW MEXICO-WEST TEXAS

CITY           SKY/WX    TMP DP  RH WIND       PRES   REMARKS
ALBUQUERQUE    CLOUDY    36  35  96 S7        29.96R WCI  30
EL PASO        PTCLDY    44  34  67 SW12      30.00S
$$


........................KEY........................
SKY/WX - SKY CONDITION/WEATHER
TMP    - TEMPERATURE IN FAHRENHEIT
DP     - DEW POINT IN FAHRENHEIT
RH     - RELATIVE HUMIDITY IN PERCENT
WIND   - DIRECTION AND SPEED IN MILES PER HOUR (MPH)
VRB    - VARIABLE WIND DIRECTION
PRES   - MEAN SEA LEVEL PRESSURE IN INCHES OF MERCURY
         F - FALLING PRESSURE   R - RISING PRESSURE
         S - STEADY PRESSURE
VSB    - VISIBILITY IN MILES
HX     - HEAT INDEX IN FAHRENHEIT
WCI    - WIND CHILL INDEX IN FAHRENHEIT
TC     - TEMPERATURE IN CELSIUS WHICH IS ALSO KNOWN AS
         TEMPERATURE IN CENTIGRADE
AFB    - AIR FORCE BASE
         LUKE AFB IS LUKE AIR FORCE BASE
         DAVIS-MONTHAN IS DAVIS-MONTHAN AIR FORCE BASE
NAS    - NAVAL AIR STATION
         EL CENTRO NAS IS EL CENTRO NAVAL AIR STATION
N/A    - NOT AVAILABLE




USA.gov is the U.S. government's official web portal to all federal, state and local government web resources and services.